Wind_Speed
15 15 14 14 14 13 13 12 11 11 10 10 10 9 9 8 8 8 8 8 8 9 9 9 8 9 9 9 9 10 13 15 15 10 9 12 11 10 9 11 14 15 14 12 12 9 7 6 6 8 7 4 2 1 4 4 2 2 2 1 1 2 2 2 2 3 2 4 4 2 3 2 2 2 4 1 4 6 8 7 6 7 9 11 16 23 25 24
16 16 16 16 16 16 15 14 13 12 11 11 10 10 9 8 8 8 8 8 7 7 8 8 7 7 8 8 8 10 14 16 15 12 14 13 9 10 11 14 15 16 14 12 13 12 9 5 6 7 5 2 2 2 4 3 3 2 2 2 2 3 2 3 3 2 1 7 6 3 3 2 3 1 3 3 6 6 9 8 8 10 10 13 19 23 23 24
16 17 17 17 18 17 16 15 14 13 12 11 10 10 10 9 8 8 8 7 7 8 8 8 8 7 7 7 7 9 13 13 9 9 8 7 9 12 13 17 16 15 16 13 12 13 9 5 8 7 3 1 2 3 4 2 1 2 2 2 3 3 2 2 4 4 1 8 8 4 4 3 3 2 1 3 7 8 9 9 11 12 12 14 16 19 22 22
17 18 18 18 18 18 18 17 15 14 13 12 11 11 10 10 9 9 8 8 8 8 9 9 8 8 7 6 6 9 10 6 3 4 5 7 5 14 18 18 15 12 13 12 10 11 7 4 7 6 3 2 2 2 3 4 2 2 2 3 3 2 3 3 5 5 3 7 8 6 5 3 2 3 2 4 6 7 8 9 12 15 17 16 14 17 20 20
18 18 19 19 19 19 19 18 16 15 14 13 12 11 10 10 9 9 9 9 8 9 9 9 8 8 7 6 6 8 6 1 2 4 4 7 2 16 21 17 13 11 11 12 8 9 7 3 4 3 2 2 2 3 3 5 4 2 2 2 2 1 3 5 6 7 6 5 7 7 6 5 4 2 2 5 6 6 8 10 13 16 18 18 16 17 18 17
18 18 19 19 19 19 19 19 18 17 15 15 13 12 11 9 9 8 8 9 9 8 8 8 7 7 6 6 4 4 2 0 5 4 1 3 2 14 21 17 13 12 12 11 8 8 6 3 4 2 2 2 4 4 3 5 4 1 2 1 2 2 1 4 6 6 5 6 7 6 4 4 6 3 3 5 5 5 7 11 13 15 19 21 19 17 15 14
17 18 18 19 19 19 19 19 18 17 16 16 14 13 12 10 8 7 7 8 8 8 7 7 6 6 7 4 1 2 1 4 7 3 3 0 3 13 20 17 14 14 13 11 8 7 6 5 5 3 2 2 5 5 3 5 4 1 1 1 2 2 0 3 6 5 3 4 5 4 3 3 6 4 3 4 6 6 10 12 13 16 19 21 17 14 14 14
17 18 18 19 19 19 18 18 18 17 17 15 14 14 12 11 9 7 7 7 7 8 7 6 5 4 6 3 1 3 1 5 6 3 5 3 7 14 18 17 15 15 15 13 9 7 6 6 6 4 2 4 4 4 5 5 3 2 2 2 2 1 2 3 6 6 2 2 2 5 4 2 4 2 0 4 7 12 13 13 14 16 17 16 15 14 13 13
17 18 18 19 19 19 18 18 18 17 16 15 14 13 13 11 9 8 6 6 7 7 6 5 3 3 5 2 1 3 3 6 6 3 4 6 10 16 18 16 17 17 15 13 11 9 6 6 6 4 3 4 4 4 7 6 2 3 3 3 3 3 4 4 4 6 4 1 2 5 3 1 1 3 3 5 12 16 15 15 15 17 16 14 13 14 13 12
17 18 19 19 19 19 18 18 17 17 16 15 14 13 13 12 9 8 6 6 6 6 5 3 2 3 3 2 4 2 4 4 5 2 3 6 10 17 19 16 18 19 14 11 13 12 6 6 6 3 2 4 4 4 6 5 1 4 7 6 6 5 2 3 2 4 4 3 3 3 2 3 4 4 2 6 14 18 16 15 16 17 15 14 13 12 14 14
18 18 19 19 20 19 19 18 17 17 16 15 15 14 13 12 9 7 6 5 5 5 4 2 1 2 1 2 4 3 4 4 8 5 3 5 9 15 18 18 18 22 17 9 13 16 9 5 1 0 2 3 1 3 3 4 6 8 9 8 8 7 4 2 3 4 2 4 5 3 4 6 2 3 3 8 15 18 18 16 16 15 13 14 14 12 12 13
18 19 19 20 20 20 20 19 18 17 17 16 16 15 15 13 10 8 7 5 5 4 2 1 1 1 1 1 4 6 3 2 8 9 8 7 9 11 13 17 18 21 20 10 10 17 16 6 3 1 2 3 1 4 3 5 7 6 6 6 5 4 2 1 3 3 1 2 4 5 5 3 2 4 5 11 14 16 17 16 14 13 11 12 13 10 9 11
18 19 20 20 20 20 20 19 19 18 18 17 16 16 16 14 11 10 8 6 5 4 2 2 2 0 2 1 6 5 3 5 7 7 10 9 10 12 12 16 17 17 20 15 8 11 16 9 1 3 3 3 1 2 4 4 5 4 3 3 4 2 1 1 1 1 2 2 1 4 3 3 5 4 8 13 14 15 15 14 13 11 9 10 10 9 8 9
18 19 20 20 21 21 20 20 20 19 18 17 17 17 16 15 12 10 7 5 4 2 1 2 1 1 1 5 8 4 4 6 6 9 11 9 11 12 11 13 16 16 18 18 10 4 9 10 5 4 3 2 2 2 4 4 3 2 1 1 2 1 2 1 1 1 3 2 2 4 2 5 4 5 11 13 15 16 14 13 12 10 9 9 8 8 7 8
18 19 20 21 21 21 21 21 20 19 18 17 17 17 17 16 13 9 6 4 3 1 1 2 0 0 1 7 7 4 6 7 9 11 10 11 13 10 10 13 15 15 14 16 14 6 3 6 4 2 3 3 6 3 2 2 3 1 0 1 1 1 1 3 1 2 2 4 4 2 3 3 3 7 11 12 15 16 14 13 12 11 11 10 8 8 7 7
19 19 21 21 22 22 22 21 20 19 18 18 18 18 18 17 11 7 4 2 3 2 2 2 1 0 1 5 6 6 6 5 8 7 7 13 15 11 11 13 11 12 13 13 12 9 4 2 2 2 1 4 7 4 3 3 2 2 1 2 1 2 1 3 1 2 1 4 5 4 4 3 2 7 10 11 14 14 12 12 12 11 11 10 8 7 7 6
19 20 21 22 22 23 22 21 20 19 18 18 19 19 19 14 7 4 2 2 2 3 4 1 2 2 2 5 5 5 5 7 9 7 7 12 16 13 9 8 5 7 10 8 7 6 3 2 2 2 2 3 3 4 4 1 2 2 1 2 1 2 4 2 1 2 1 3 2 2 4 4 5 9 10 11 13 13 11 12 12 11 10 8 7 7 6 7
19 21 22 22 23 23 22 21 19 18 18 18 19 20 16 8 2 0 3 5 3 3 3 1 0 2 3 5 4 6 10 12 10 6 7 9 14 16 11 6 3 4 3 2 3 3 2 2 0 3 3 2 2 4 3 3 4 4 3 2 1 1 5 5 2 2 4 2 1 3 4 5 8 10 11 9 8 10 11 11 10 10 9 8 7 7 6 8
20 21 22 23 23 22 22 21 19 18 17 17 17 16 8 4 2 3 5 5 3 0 1 2 1 1 4 7 8 11 14 13 7 4 6 10 12 15 12 5 3 6 3 1 1 2 3 1 1 3 4 5 6 5 6 5 5 8 6 4 4 3 3 4 1 1 4 4 2 2 4 8 10 11 11 5 1 5 10 9 9 9 8 7 6 6 7 9
20 21 23 23 22 22 21 19 18 17 17 17 15 9 3 3 3 1 1 3 4 4 4 3 4 2 6 7 9 12 13 10 5 5 7 10 10 8 5 1 4 3 2 3 2 2 3 2 2 4 6 7 9 9 8 5 4 6 4 3 5 5 1 0 1 1 1 3 3 0 4 11 11 11 11 4 3 4 10 10 10 9 7 7 7 7 9 9
20 21 23 23 23 21 19 18 16 15 16 15 12 5 1 1 3 4 3 3 7 9 8 8 8 8 9 9 9 5 5 5 4 4 5 7 8 7 1 1 4 1 2 3 2 1 2 3 5 6 8 8 8 8 7 3 4 5 4 3 4 3 2 3 3 2 3 2 4 2 3 9 11 12 10 1 3 4 11 12 11 10 9 7 7 8 9 7
20 21 22 23 22 20 19 17 15 15 13 11 9 3 2 3 3 3 1 4 7 7 9 8 6 8 11 13 14 4 3 2 5 5 4 4 4 3 1 3 5 3 3 2 1 3 1 4 8 8 7 6 6 5 5 4 5 4 3 4 3 2 3 4 2 1 2 2 4 5 4 4 4 6 6 1 2 4 8 13 13 11 10 8 8 9 8 7
21 22 23 23 21 19 18 16 15 14 9 8 9 5 4 8 6 5 1 2 7 4 5 5 4 5 6 10 10 4 4 2 4 5 4 5 2 3 4 4 5 3 2 2 3 2 3 5 8 6 4 4 4 4 4 3 4 4 4 4 3 5 4 2 2 5 2 0 3 7 6 2 1 2 6 5 2 4 5 12 13 12 12 11 11 10 10 9
21 22 23 23 21 18 17 16 14 8 7 12 13 8 11 14 9 4 2 0 4 5 4 5 4 4 5 6 4 7 3 3 3 4 5 8 3 2 4 4 4 2 2 4 5 4 7 7 2 2 4 4 4 3 3 4 3 4 6 5 5 8 6 2 5 6 2 1 4 8 6 1 3 7 9 5 2 4 3 8 11 10 11 12 11 11 10 10
22 22 22 23 21 17 16 14 7 4 11 14 9 10 17 16 9 0 3 2 3 5 5 3 2 3 5 3 4 5 2 2 4 4 7 9 6 3 2 2 3 2 5 4 4 4 9 7 2 2 3 4 4 4 5 6 4 3 6 6 6 10 7 7 10 8 2 2 5 8 4 2 6 10 11 5 2 4 1 6 12 10 9 10 10 10 10 10
23 22 22 21 20 17 13 6 2 8 13 8 4 12 20 18 9 3 4 5 2 5 5 1 1 2 4 2 3 3 3 2 6 5 6 10 9 4 2 1 1 3 5 3 3 3 5 3 6 5 6 6 5 5 6 6 4 3 5 5 6 9 10 12 13 7 2 3 4 5 4 2 4 9 11 6 2 5 3 3 11 10 8 9 10 9 9 10
23 22 21 20 19 16 9 3 6 10 6 3 8 15 21 19 6 5 3 5 2 3 2 2 1 1 3 2 4 5 2 5 4 3 5 10 7 2 2 3 0 2 3 2 1 3 3 2 6 7 7 6 5 6 8 7 5 4 4 9 11 10 11 13 12 5 1 2 3 3 2 2 4 8 10 6 2 5 4 3 9 10 9 10 10 9 9 11
23 21 19 17 16 15 9 7 10 6 3 8 13 16 22 16 2 6 4 3 2 2 2 3 1 1 2 0 4 4 3 3 1 3 3 8 5 3 1 5 4 4 3 3 2 4 2 2 6 8 6 5 7 9 9 9 4 3 4 10 9 7 7 7 6 3 2 2 3 5 4 2 3 4 5 6 4 5 6 6 8 10 11 11 11 10 10 12
22 19 18 16 14 13 10 9 9 5 7 12 14 19 22 10 4 4 4 2 1 2 2 1 1 2 2 1 2 0 1 0 1 4 0 4 2 3 2 6 5 4 3 4 5 6 4 6 6 6 5 6 9 9 9 10 4 3 11 13 10 9 9 6 3 2 2 1 3 7 7 3 2 3 5 6 6 7 7 6 7 9 11 11 11 10 10 11
21 18 17 15 12 9 8 10 10 7 9 11 16 22 16 3 4 5 3 0 1 3 2 1 1 1 3 2 3 2 1 1 1 2 2 1 2 2 2 3 3 1 2 1 5 7 7 6 4 4 5 6 5 4 6 11 11 11 12 12 10 8 6 5 3 2 2 2 2 5 7 3 2 4 6 7 6 7 8 6 6 7 10 11 10 9 10 10
19 16 15 14 10 7 5 6 6 4 8 14 21 19 7 2 4 5 1 1 1 3 2 1 2 0 3 2 2 1 1 2 1 2 1 1 2 3 0 1 3 2 3 4 4 6 6 4 3 5 6 4 5 5 4 10 14 11 6 6 7 4 3 3 2 2 1 3 2 3 6 5 4 4 6 8 8 9 9 9 8 8 9 11 10 9 10 10
17 15 13 11 10 10 8 6 5 8 13 18 17 9 3 2 3 2 2 3 1 2 2 3 3 3 4 2 2 3 1 1 1 2 2 2 1 1 2 3 1 2 3 3 3 5 6 5 4 2 4 9 10 7 5 4 6 6 6 5 5 3 2 1 1 0 2 3 1 3 5 5 5 4 5 9 11 13 11 9 9 10 10 11 11 9 9 9
16 13 10 9 10 12 12 10 11 13 16 16 10 4 5 4 1 3 3 2 2 3 2 3 3 4 4 1 2 2 1 1 0 1 1 2 1 2 3 4 5 3 1 3 2 4 4 5 3 3 4 7 11 10 4 0 2 7 7 5 4 4 2 1 2 1 2 2 0 3 5 3 4 3 6 12 14 14 13 11 10 9 9 9 10 10 9 9
15 11 8 9 10 11 12 11 12 13 13 12 5 4 5 3 2 3 2 3 4 4 4 1 1 4 5 3 2 0 2 2 0 2 2 3 3 2 4 4 3 4 2 1 1 1 1 4 2 4 4 5 7 12 12 9 7 6 4 5 5 5 3 3 3 2 2 1 2 4 4 3 2 2 5 10 12 12 12 11 9 6 5 4 5 7 9 10
15 10 8 10 9 8 8 9 10 10 8 6 5 5 3 1 3 2 3 4 2 4 7 3 4 3 1 1 3 1 2 1 1 3 3 2 1 0 2 4 2 3 4 1 2 2 2 4 6 5 5 8 7 9 12 11 6 2 2 4 2 4 5 3 3 4 4 2 2 4 2 2 3 2 2 4 8 10 10 9 9 7 5 4 3 5 8 9
13 8 7 7 7 5 5 5 5 3 1 4 5 3 1 3 3 2 3 3 2 4 7 6 5 4 3 3 3 2 1 0 2 3 2 2 0 2 3 3 2 3 4 3 2 1 1 4 6 5 2 8 5 6 11 10 5 2 1 3 4 4 6 4 0 1 3 2 1 3 2 3 1 2 1 4 6 9 10 10 12 10 8 7 4 4 6 8
12 7 6 6 6 5 5 3 1 4 4 5 4 0 3 3 3 4 3 4 5 3 2 3 2 2 1 2 2 2 1 3 3 2 1 2 2 2 3 3 2 3 3 3 2 2 1 4 6 2 4 6 1 2 6 5 6 7 3 5 3 2 3 5 2 2 2 1 1 2 3 2 1 1 3 7 7 8 10 11 13 12 10 9 8 6 5 7
12 6 5 5 6 6 4 1 5 6 5 5 2 2 2 2 4 4 3 5 5 2 3 2 1 2 1 0 2 2 2 2 2 1 0 1 2 2 2 3 1 1 2 2 1 1 2 2 6 4 4 5 6 5 1 5 2 6 5 5 4 2 0 2 2 1 1 1 2 2 3 3 4 3 6 10 11 11 11 12 13 14 12 11 11 9 6 6
8 4 3 3 2 4 4 5 7 6 5 3 0 3 2 3 6 6 5 5 2 2 3 1 1 1 1 2 2 1 3 2 0 1 1 1 1 2 1 2 2 3 4 3 3 1 1 1 4 5 3 4 6 4 4 5 5 1 3 3 2 2 3 3 2 3 3 2 2 1 1 3 5 5 9 13 13 13 13 12 13 15 14 13 12 11 7 6
3 3 1 4 4 3 7 7 5 5 2 1 2 3 2 3 6 7 6 4 2 2 2 2 1 2 1 1 1 1 2 3 2 1 1 1 2 4 2 1 2 4 4 1 4 2 2 1 3 6 4 3 4 5 8 8 5 3 3 2 1 0 2 2 1 1 3 3 2 0 1 4 5 3 9 12 12 13 15 15 13 13 14 13 13 13 9 6
4 3 2 4 3 9 9 6 3 2 1 2 2 3 2 2 4 7 8 4 2 2 2 3 2 1 0 1 3 1 2 2 1 3 1 1 0 3 3 2 2 4 3 5 4 2 2 1 2 4 3 2 4 5 6 7 6 6 5 4 4 3 3 2 1 2 1 3 3 3 1 5 4 2 6 8 10 11 13 14 12 11 13 12 12 13 11 8
3 2 2 2 7 13 8 3 2 1 2 3 3 4 3 2 4 5 6 3 1 1 1 2 2 1 1 1 1 1 3 2 1 2 1 1 1 4 4 3 4 1 3 3 2 1 2 2 2 4 3 4 7 6 1 4 4 4 3 3 4 3 4 5 2 2 1 2 1 2 1 4 4 0 2 5 7 9 10 12 11 11 11 11 10 11 10 8
2 1 3 1 12 13 7 2 3 2 2 4 4 4 3 2 4 3 3 2 1 1 1 2 1 2 1 0 1 3 2 2 2 2 2 2 3 5 5 6 6 1 4 2 3 1 2 3 3 5 5 4 6 6 5 3 5 3 2 1 3 3 2 5 5 3 3 2 1 1 0 3 4 3 2 3 5 7 8 9 10 10 8 7 8 8 8 7
1 4 3 2 11 9 4 1 3 3 4 4 5 6 5 3 5 3 2 2 0 2 1 1 1 2 1 1 3 3 2 1 2 1 2 2 2 6 6 7 4 2 2 1 2 1 2 2 2 4 5 6 6 7 6 5 5 0 3 3 3 5 2 2 1 2 1 3 4 3 1 3 4 5 5 5 5 6 5 6 8 8 6 6 6 6 6 6
1 2 3 2 1 3 2 3 3 2 4 4 5 7 6 4 4 4 3 2 1 2 2 1 1 2 1 2 3 3 3 4 2 1 1 2 2 5 7 8 7 4 1 2 1 2 3 2 3 4 3 1 2 3 3 2 3 1 3 6 6 5 5 4 2 2 2 3 4 3 1 2 4 7 8 6 5 5 4 4 5 4 4 5 5 5 5 4
2 0 3 5 4 4 1 1 3 2 1 3 4 6 4 4 4 1 2 1 1 0 2 1 2 2 3 4 4 3 4 3 2 2 1 1 1 3 2 3 6 6 3 5 5 3 4 3 2 4 5 4 4 6 5 0 3 4 6 8 8 4 3 5 4 3 4 2 4 1 2 2 5 7 7 6 5 6 5 5 5 3 3 4 4 5 4 4
2 1 1 2 3 3 3 2 4 2 1 1 1 4 3 3 4 2 1 2 1 1 3 2 3 3 2 3 4 2 4 3 3 3 1 2 2 3 3 1 3 7 5 7 5 3 5 3 3 4 3 1 3 6 3 6 8 6 7 9 10 8 5 6 3 4 5 5 2 4 1 4 5 6 5 5 5 5 4 5 4 4 4 4 4 5 4 3
1 1 0 1 1 1 1 3 4 4 3 1 2 4 4 3 2 1 1 1 2 3 3 3 6 4 1 3 4 2 4 4 4 4 2 3 3 4 5 2 3 7 5 5 4 3 6 2 5 2 4 7 7 6 4 9 10 9 11 12 13 12 11 9 3 3 2 6 4 2 5 7 5 6 6 4 4 5 4 4 4 5 5 5 5 5 5 2
1 1 2 2 1 3 3 4 4 5 5 3 2 3 4 2 1 1 1 2 3 4 3 4 5 5 3 4 5 3 3 2 3 3 1 2 3 3 4 4 4 6 4 5 3 2 5 1 6 3 4 6 8 8 6 10 12 13 15 14 12 12 13 12 9 8 8 10 10 10 12 9 6 6 6 5 5 5 5 5 6 5 5 6 7 6 6 4
1 1 2 3 2 3 3 3 2 2 5 3 1 4 4 2 2 1 1 3 2 3 2 6 2 1 4 6 7 4 2 5 2 2 1 2 3 2 1 1 2 5 4 3 2 2 3 0 6 2 4 4 5 3 4 11 15 14 15 15 14 14 14 13 11 8 8 10 10 12 12 9 6 5 6 6 6 7 8 8 8 7 5 5 6 6 7 7
3 3 1 2 2 3 2 2 1 2 3 2 1 4 4 4 5 1 1 1 5 4 2 8 7 2 3 7 7 2 3 7 6 4 4 4 0 2 2 2 3 3 4 2 1 2 3 1 4 3 4 3 5 4 3 7 10 13 15 15 14 12 12 11 10 8 6 3 5 9 8 5 4 4 5 7 8 10 9 9 8 6 4 5 5 5 5 5
6 3 2 2 1 3 2 2 3 3 1 2 3 5 3 5 8 1 2 2 1 2 4 9 9 4 4 7 5 2 5 7 7 6 6 5 3 4 4 3 2 1 0 2 2 2 4 3 1 2 3 2 6 5 4 5 7 7 8 8 8 7 10 10 11 12 9 3 2 5 4 3 3 3 5 8 9 9 8 6 6 4 3 3 3 3 3 3
Wind_Direction
14 12 11 8 4 1 359 356 354 351 349 346 344 340 335 334 330 328 323 318 320 321 331 335 337 337 332 332 330 324 320 314 312 296 247 257 263 244 225 196 181 164 161 161 156 151 152 179 190 181 169 157 171 184 200 177 107 80 84 153 239 192 221 279 147 165 146 121 149 169 34 94 120 358 312 344 110 122 113 96 97 92 95 113 129 140 141 140
16 14 12 9 7 4 2 360 358 354 351 349 348 345 342 339 333 333 328 324 325 326 334 332 333 337 336 338 327 322 322 316 308 279 255 264 259 231 203 181 178 175 176 173 171 162 146 174 183 166 150 138 195 185 188 172 98 123 143 170 235 190 209 323 126 156 137 125 136 143 105 101 126 281 311 115 136 129 114 117 115 105 104 114 130 140 140 142
15 15 13 10 8 6 4 2 1 357 355 356 352 349 348 344 338 336 333 330 330 331 334 333 336 339 340 334 321 324 321 321 308 267 280 295 237 217 187 172 175 183 190 188 183 172 154 157 165 156 133 171 223 193 190 181 125 159 146 200 248 187 169 268 164 158 131 132 139 160 142 109 143 187 10 116 148 144 139 143 136 131 132 133 138 142 143 145
12 13 11 11 9 8 6 5 3 359 358 1 360 357 351 346 344 339 338 338 338 340 341 344 343 337 338 329 323 330 324 327 306 268 331 348 219 191 177 170 175 184 192 194 190 180 167 132 149 155 137 224 241 176 193 192 185 164 152 209 229 158 151 197 181 171 174 148 152 152 134 131 165 156 102 124 151 159 163 161 151 146 144 143 145 146 148 150
10 9 9 9 8 7 7 5 3 2 2 2 5 6 359 353 349 342 341 341 343 345 347 352 348 339 338 338 332 325 335 54 261 287 322 338 216 180 175 170 175 175 176 187 184 171 176 117 109 134 148 224 206 162 210 192 167 155 205 231 186 165 145 162 172 173 170 149 151 141 140 152 132 138 154 148 173 185 169 161 155 150 148 148 149 150 152 153
7 7 7 7 6 5 4 3 2 3 3 4 7 10 8 2 354 347 341 340 343 344 350 357 350 346 351 354 336 314 1 102 277 285 300 341 170 180 176 173 174 165 170 181 171 157 163 126 102 135 165 218 203 196 213 179 160 165 250 270 203 260 138 147 151 161 164 147 155 152 151 137 120 157 185 168 214 208 153 150 150 148 148 147 148 151 154 158
5 5 5 6 6 4 2 1 0 2 3 4 5 6 9 6 357 349 342 341 342 341 348 357 354 356 5 6 319 356 63 266 279 248 224 320 157 179 173 175 173 167 180 183 168 158 151 149 152 156 165 225 216 215 203 165 171 192 226 202 196 265 231 127 124 140 177 151 153 136 112 117 132 150 160 196 221 169 144 141 140 143 145 146 148 154 158 162
2 2 3 4 3 2 360 358 359 0 2 4 3 2 4 5 359 348 346 343 339 342 346 355 2 1 10 21 287 357 317 263 291 250 221 172 156 172 168 172 177 177 187 193 184 163 153 159 168 156 174 240 219 200 174 149 188 215 185 163 136 84 109 105 118 137 151 130 124 108 111 149 152 130 252 213 176 145 144 139 135 141 145 149 153 156 160 165
360 360 1 2 0 360 357 356 356 357 360 3 2 359 357 358 359 352 345 337 334 339 342 349 358 18 16 10 44 6 280 279 302 272 209 174 166 173 173 176 182 184 189 202 198 174 172 172 178 180 185 243 227 186 169 154 218 209 136 116 104 80 115 116 128 144 142 153 128 116 139 169 70 358 301 187 152 142 145 142 141 145 152 157 158 160 164 168
358 358 359 359 357 356 354 353 353 354 357 0 360 355 350 352 356 351 339 328 327 326 337 347 348 32 22 8 57 22 289 327 343 291 204 195 176 176 187 190 187 190 189 197 199 188 185 166 171 200 201 259 235 179 172 168 156 123 109 83 57 24 53 105 122 155 149 114 90 96 100 63 28 349 276 165 148 144 146 148 148 148 156 162 161 165 167 172
357 356 356 355 354 353 352 350 350 352 353 355 357 350 345 347 346 340 328 316 316 319 326 335 31 58 59 90 81 275 261 44 24 2 293 240 198 187 198 203 195 195 190 190 205 201 196 177 118 127 200 282 242 119 122 133 109 113 115 82 49 19 5 68 122 169 176 94 103 120 73 68 32 297 219 159 148 146 148 153 155 153 155 161 163 165 169 175
355 354 354 352 351 350 349 347 346 349 349 352 354 347 341 340 335 325 319 314 309 311 300 262 124 116 344 105 187 232 234 7 346 326 299 273 232 222 219 214 207 202 199 198 214 209 203 204 11 350 236 336 55 112 98 110 105 104 106 89 68 53 31 106 134 176 211 87 138 141 89 86 227 253 184 151 149 149 149 154 159 158 154 159 164 165 172 174
353 352 351 349 348 347 346 344 344 345 346 351 351 345 337 331 330 320 313 312 299 296 274 185 168 145 25 280 239 247 279 300 309 283 273 272 244 244 243 228 221 219 215 210 217 216 208 209 280 262 268 351 359 134 107 82 78 71 63 85 86 75 196 156 87 183 128 100 155 123 114 198 239 236 165 148 150 148 149 156 159 159 159 163 167 169 176 171
352 350 348 346 345 345 343 342 343 342 343 349 348 341 331 327 327 314 305 302 292 292 170 143 166 103 114 269 278 301 305 304 292 246 242 245 234 244 254 234 225 227 226 221 226 224 200 206 230 262 274 242 192 120 86 45 39 75 32 30 83 118 218 125 27 231 143 118 53 63 121 201 229 193 158 150 151 150 152 160 161 161 164 169 173 174 179 174
350 348 346 345 343 343 342 342 341 340 342 346 343 336 327 326 322 306 299 290 266 226 131 108 138 28 359 285 290 312 296 288 273 249 231 224 217 229 243 221 217 222 225 226 229 235 198 199 212 256 282 175 143 121 74 36 29 75 145 316 41 116 311 319 292 204 153 122 120 108 137 191 218 173 160 156 155 154 158 162 163 167 169 175 180 176 179 180
348 347 344 343 342 342 341 341 340 338 342 342 338 334 328 326 318 300 295 261 245 216 137 77 23 60 3 287 306 319 289 258 270 269 234 220 211 217 222 207 212 219 220 230 234 245 263 236 203 196 206 126 136 134 76 46 1 353 116 163 191 131 117 298 256 187 129 124 163 191 161 152 192 173 162 158 158 157 160 164 166 170 175 179 181 177 177 176
347 345 343 342 342 341 340 340 338 338 342 340 336 334 331 325 308 291 265 182 213 188 152 90 359 27 273 270 315 323 291 279 281 270 227 219 218 220 204 188 211 211 213 232 239 247 249 206 212 187 153 110 146 131 86 22 286 320 43 127 215 146 156 205 209 193 130 113 175 174 145 152 159 165 161 155 159 161 162 169 171 173 181 182 180 177 175 172
345 343 342 343 342 340 340 338 337 340 341 340 338 334 335 335 304 104 129 142 146 157 154 273 350 43 278 277 320 295 294 303 290 257 217 212 220 219 204 189 182 136 154 254 229 209 191 205 183 153 149 125 156 135 132 213 200 184 178 145 155 170 182 197 205 176 140 105 85 106 113 136 148 158 158 144 145 161 170 175 176 179 181 181 181 177 174 173
343 342 341 342 342 340 339 336 338 341 338 339 338 333 344 31 72 102 121 127 115 150 259 249 172 38 275 282 303 292 301 313 296 254 207 191 203 212 210 204 122 108 106 33 285 198 175 212 63 141 167 176 184 182 189 203 178 175 180 152 152 163 199 204 191 150 146 125 107 119 126 142 154 156 154 146 57 172 179 178 179 184 181 178 180 175 174 176
341 341 340 341 342 339 337 336 337 337 335 337 339 340 8 38 25 24 156 172 201 224 241 219 181 236 274 275 289 294 311 317 269 230 208 184 175 180 203 190 86 78 118 147 242 237 147 183 230 193 194 191 191 201 205 194 151 157 158 140 157 161 170 148 72 70 120 118 119 148 145 150 156 151 156 171 335 203 187 183 184 183 179 178 176 174 175 177
340 339 339 340 340 339 337 333 332 333 333 334 343 5 147 307 347 321 308 262 235 211 224 230 195 221 258 260 271 299 341 323 265 241 220 181 150 143 187 80 108 333 259 166 228 307 119 195 238 217 201 199 197 206 215 187 141 156 157 144 155 162 100 49 45 55 6 29 131 133 146 155 156 158 164 143 353 216 192 184 185 181 180 177 169 175 174 164
339 338 338 339 338 338 335 330 328 328 330 335 350 15 225 289 304 272 318 313 278 213 215 235 209 233 259 264 267 274 73 303 291 290 222 163 127 149 147 77 129 224 280 103 57 333 311 229 239 230 206 205 207 194 207 193 159 158 142 140 151 144 103 64 47 132 26 11 150 136 136 158 160 171 193 269 346 253 203 187 184 177 179 177 169 175 170 148
337 336 336 336 337 337 333 328 324 324 332 337 330 313 314 338 315 257 203 317 291 263 223 219 199 230 263 273 257 185 112 225 260 279 208 153 134 166 137 102 150 204 312 122 168 225 259 247 240 230 192 206 229 193 189 188 167 164 143 144 160 159 160 142 168 180 169 72 147 130 125 136 330 267 268 277 275 293 237 195 186 177 178 179 174 175 168 153
336 335 334 333 335 336 332 325 320 322 335 325 316 324 349 351 337 272 176 131 293 289 254 216 198 206 234 263 206 150 151 206 213 254 184 147 132 148 150 149 147 173 261 198 182 205 244 255 234 145 158 203 235 212 188 182 197 210 177 166 168 172 180 122 134 156 140 73 129 124 114 153 189 203 237 263 295 302 255 193 191 186 184 178 173 174 168 158
335 333 331 332 332 334 332 323 316 341 332 318 310 344 351 350 351 258 151 47 315 289 286 234 218 230 231 231 167 164 172 220 226 216 169 156 153 129 160 172 131 199 238 201 163 221 252 250 156 151 195 201 223 226 213 192 193 236 214 205 180 167 153 112 128 138 128 192 171 153 150 206 186 197 217 232 302 298 301 185 195 193 189 183 174 176 169 160
335 330 328 329 327 331 334 321 327 342 329 313 313 340 343 347 355 168 142 40 333 288 317 289 167 232 234 193 158 135 82 279 250 214 172 169 169 136 136 213 67 210 220 190 165 228 257 207 160 200 214 197 212 232 226 188 163 231 218 186 148 143 135 134 147 152 171 197 180 177 179 169 182 208 217 210 246 276 319 205 200 190 188 192 184 179 169 162
333 327 326 325 324 332 335 283 313 326 317 296 322 331 338 345 355 165 106 32 331 295 305 266 142 178 228 201 133 104 108 269 276 242 181 171 176 104 134 201 330 238 211 123 202 242 238 184 175 199 206 194 200 229 223 173 156 247 201 148 141 146 148 151 157 156 145 113 116 190 177 122 194 212 209 194 210 260 290 260 209 191 188 194 191 184 173 167
331 326 322 319 322 326 316 296 305 307 260 295 312 322 332 339 130 143 70 52 329 329 239 262 302 218 271 221 135 130 214 238 325 282 207 155 161 60 124 210 185 218 220 125 235 263 231 219 209 197 189 190 210 227 209 161 160 259 129 122 126 125 126 137 144 119 78 105 156 206 180 137 218 198 173 177 205 239 241 241 216 194 191 194 192 187 178 173
330 325 318 314 316 316 308 296 289 283 289 298 311 322 327 332 136 93 56 109 339 304 234 329 319 246 357 28 208 205 319 83 152 267 290 121 147 80 184 212 172 209 238 162 226 267 249 223 214 190 181 204 218 219 189 161 162 112 99 91 75 67 61 55 56 65 71 174 208 200 182 171 221 175 160 180 206 220 217 230 225 197 191 193 192 189 182 176
331 324 314 309 311 311 308 293 278 281 295 302 318 324 328 358 99 57 41 172 299 266 257 20 287 264 78 61 298 335 38 258 247 311 38 82 330 22 188 203 112 166 278 241 234 260 263 242 224 207 208 208 201 194 175 157 140 115 101 88 73 59 52 52 23 36 81 242 243 194 189 205 249 195 187 186 191 201 200 210 223 204 191 190 193 189 182 179
329 320 308 303 301 291 290 290 273 278 304 314 322 327 345 75 63 80 140 280 297 283 303 262 254 214 144 168 280 252 190 266 292 65 69 262 341 11 338 314 41 47 353 335 272 281 289 263 238 228 203 148 95 70 100 132 128 115 110 111 91 46 20 57 19 25 128 241 246 189 190 208 244 225 196 183 177 188 198 201 203 200 193 188 191 192 183 179
327 314 302 294 283 263 246 251 271 288 303 315 326 343 70 58 21 114 250 328 333 276 274 232 229 190 190 205 268 238 199 273 313 105 165 191 206 202 188 199 164 34 337 301 298 315 300 255 258 272 154 133 112 90 69 93 112 111 120 122 99 52 10 28 337 284 212 245 248 179 183 204 245 243 187 181 185 190 197 202 198 195 192 185 187 191 183 178
325 309 298 285 273 263 258 266 278 284 300 319 339 41 85 67 15 228 260 314 248 248 250 241 220 159 165 192 283 287 355 282 308 56 190 141 114 281 270 208 160 121 238 245 323 340 318 296 313 80 133 149 129 125 134 214 156 144 142 139 122 114 105 223 250 277 239 240 22 150 172 204 268 263 189 187 192 191 190 197 199 194 191 185 184 185 181 178
326 309 296 286 278 272 270 273 276 283 308 333 13 63 61 62 250 256 273 257 251 277 291 293 108 128 140 175 243 148 43 305 186 77 18 39 51 347 324 292 177 128 129 230 320 177 259 310 284 153 181 193 156 155 165 163 161 163 140 122 134 151 157 182 197 207 204 184 111 135 164 193 207 254 214 193 190 187 185 191 190 180 173 169 168 174 177 179
327 308 294 288 282 275 267 272 278 287 319 3 59 68 72 211 260 270 254 250 266 314 315 356 73 84 83 297 294 176 142 258 327 70 37 27 55 284 292 285 227 140 121 145 263 197 179 252 256 257 203 184 186 176 156 139 144 179 92 98 158 184 149 135 183 168 138 122 143 165 212 230 189 260 291 162 170 179 179 182 184 179 167 165 171 172 175 180
327 307 296 281 269 259 253 275 279 266 12 58 61 49 171 214 232 194 230 260 300 318 324 355 53 60 340 321 325 312 158 99 36 53 12 332 355 223 239 259 232 167 138 151 231 263 341 274 271 303 203 182 195 176 158 144 138 133 123 176 219 180 127 112 184 70 98 122 203 193 262 300 231 270 231 135 153 175 174 179 190 192 180 181 203 194 177 179
329 310 293 269 253 233 235 273 176 121 83 75 76 310 220 224 219 196 237 295 304 307 18 17 42 101 303 321 302 281 16 20 20 65 355 327 319 265 286 294 245 181 172 173 216 222 229 290 289 304 182 185 75 116 172 174 139 132 184 215 184 105 89 101 110 18 58 186 237 208 240 252 194 252 185 161 170 184 182 181 188 192 185 190 208 204 187 179
324 310 294 271 247 227 234 224 125 112 74 71 62 276 223 230 244 223 257 294 303 337 89 79 308 144 134 153 254 264 77 39 352 44 76 359 305 268 318 298 282 47 255 223 77 177 143 308 298 290 197 161 77 72 258 289 225 142 169 194 143 112 130 101 120 147 145 223 261 238 255 232 201 203 182 182 189 189 186 183 185 190 187 191 203 203 194 179
328 334 324 339 316 236 209 157 123 89 54 61 317 266 219 250 267 260 277 296 293 76 78 192 254 37 84 171 228 296 87 129 54 19 54 75 301 279 15 294 321 351 266 196 104 290 97 93 282 297 268 148 101 119 191 255 278 96 119 174 155 133 162 157 166 160 143 167 237 269 318 248 229 201 181 190 194 185 183 186 187 189 186 187 198 199 193 182
5 32 300 359 15 196 165 132 95 62 61 197 209 234 259 274 278 278 277 272 197 130 81 213 232 30 354 280 319 340 90 120 137 99 10 44 321 301 297 215 299 292 268 81 72 332 15 75 275 311 321 152 152 194 192 196 207 153 130 186 207 127 131 156 201 158 126 139 179 175 299 260 252 195 182 190 190 183 183 188 189 186 184 185 191 194 190 184
20 40 255 3 78 165 143 98 52 83 143 261 222 224 257 242 273 292 286 271 205 150 138 162 147 68 114 2 339 309 87 87 125 100 44 329 36 290 272 221 262 288 326 32 39 1 17 33 294 314 329 193 224 233 197 190 180 156 168 195 189 169 123 122 263 274 124 128 165 163 214 270 265 195 191 189 185 186 184 184 184 179 180 182 186 190 189 183
34 84 245 11 140 158 125 77 286 112 176 260 243 231 267 260 258 283 290 304 27 87 104 120 120 117 152 167 273 336 89 111 100 99 161 232 153 222 254 305 309 324 68 24 298 223 99 70 324 279 260 241 263 284 265 196 159 127 171 189 160 145 124 139 198 254 181 117 138 137 171 272 274 244 179 178 176 178 175 175 176 175 179 179 179 186 185 179
86 240 285 118 167 159 93 42 283 345 244 257 281 259 263 266 257 274 292 307 48 78 26 26 72 93 76 252 72 39 52 128 119 136 173 13 340 252 264 313 309 23 79 11 287 295 81 64 347 292 294 311 306 327 4 48 69 57 321 19 136 187 171 158 179 178 162 167 142 93 294 273 303 358 68 131 143 152 162 166 166 170 175 171 170 175 174 169
183 263 306 124 176 172 88 150 252 308 278 293 321 296 283 250 234 237 257 265 157 111 95 358 358 86 63 23 86 68 34 100 100 130 147 96 297 291 332 348 342 36 75 226 224 59 57 52 13 351 352 354 345 344 359 21 42 43 282 326 248 225 164 117 136 86 120 198 153 127 250 266 309 1 58 94 112 128 149 158 157 163 163 155 156 157 157 151
347 251 282 334 168 145 133 179 175 276 288 324 322 297 295 274 233 200 204 253 252 147 133 263 283 119 95 47 66 50 52 99 107 340 70 127 246 307 348 3 3 358 285 208 152 83 84 65 43 61 56 354 325 310 306 328 342 318 323 329 295 241 175 154 128 92 205 221 122 107 248 290 340 13 47 63 88 102 111 132 143 150 144 142 146 145 143 132
32 43 297 327 7 54 81 194 108 112 290 354 321 289 280 281 289 226 153 51 321 153 100 3 324 59 55 56 59 12 15 67 95 64 55 13 302 267 299 15 357 342 32 71 41 49 87 56 43 138 164 194 221 248 255 18 35 10 350 338 324 293 186 142 117 146 192 154 89 195 206 90 10 10 41 52 72 89 100 124 137 138 131 134 141 146 143 116
58 3 340 338 338 11 1 358 46 52 235 131 267 274 276 284 294 312 55 61 308 2 64 32 14 48 66 75 85 13 347 2 20 49 27 313 298 283 289 106 17 348 29 64 34 50 89 34 290 203 176 249 260 264 274 74 65 38 19 8 360 5 50 88 110 209 185 129 116 272 226 93 29 11 41 52 69 87 91 103 119 129 132 135 132 145 153 114
47 310 5 43 301 263 345 335 343 331 312 307 235 263 281 292 286 290 351 32 1 6 69 43 1 11 113 116 109 58 351 4 10 8 347 331 336 335 340 8 23 5 28 65 45 88 101 30 282 271 21 7 355 347 36 80 70 43 36 29 17 22 45 61 30 308 134 131 157 164 85 79 47 34 44 39 50 67 68 77 98 112 121 130 124 134 158 116
16 2 320 2 351 217 244 290 309 321 326 342 325 275 268 281 299 218 209 75 17 346 79 87 353 348 42 89 106 82 10 35 25 347 324 353 350 2 5 348 344 1 33 75 53 92 109 25 289 300 35 14 12 14 40 72 66 45 32 26 24 30 40 48 42 40 71 100 116 104 85 70 46 37 42 37 39 52 55 53 57 66 92 125 131 139 159 142
9 359 329 356 338 272 262 279 301 340 338 354 330 286 283 283 274 234 94 101 123 301 41 93 87 11 67 73 88 95 174 167 139 321 175 69 3 355 14 286 273 333 5 81 62 3 90 29 285 318 54 3 353 10 52 63 63 51 32 19 23 33 32 32 33 34 58 86 99 93 81 66 41 33 45 47 44 49 50 46 47 44 54 94 118 139 157 153
321 281 332 43 314 304 289 282 359 51 349 347 325 299 316 313 286 246 58 123 167 187 157 126 130 127 54 59 67 65 213 181 183 230 192 151 210 230 232 232 215 316 350 59 73 28 89 118 296 27 66 327 304 300 339 36 51 47 31 13 11 33 41 33 30 32 34 56 79 76 73 60 32 34 57 61 61 60 55 48 51 50 55 84 112 141 154 154
351 316 3 78 261 312 342 314 7 59 259 258 280 283 282 301 297 245 118 312 264 155 167 146 128 92 47 49 45 285 236 201 211 230 195 168 179 196 212 232 205 206 311 96 69 58 114 130 285 43 79 283 298 315 331 19 41 29 11 354 350 29 55 46 32 30 27 8 44 63 64 63 53 57 67 67 67 69 65 59 60 53 52 84 116 144 137 125
Height
807 806 805 804 803 802 801 800 799 798 797 796 796 795 794 794 793 792 792 790 790 788 788 787 786 785 784 783 783 782 781 779 778 779 776 766 762 764 765 767 768 769 771 772 773 775 776 778 780 780 783 784 786 787 785 785 787 794 803 811 813 813 810 802 801 802 799 803 804 800 799 800 803 801 795 792 795 797 799 801 800 800 799 802 805 807 809 811
807 806 805 803 802 801 800 799 799 798 797 796 795 795 794 793 792 791 791 790 789 788 787 786 786 785 784 783 783 781 780 778 777 775 768 761 762 764 764 766 768 769 770 771 772 773 776 778 779 780 783 787 787 786 786 786 788 797 805 811 810 805 802 796 797 798 796 800 802 799 799 799 802 802 797 800 804 801 804 807 804 806 806 805 807 809 811 812
807 806 805 804 803 801 800 799 798 797 796 796 795 794 793 792 791 791 790 789 788 787 787 786 785 784 784 783 782 781 780 778 776 769 761 759 761 762 764 766 767 769 769 771 773 774 776 777 778 781 785 789 787 786 789 788 790 796 802 808 804 796 797 795 794 796 795 795 799 799 798 799 800 799 799 803 806 805 807 808 807 811 811 809 809 810 812 813
807 806 805 804 803 801 800 799 798 797 796 795 794 794 793 791 791 790 789 788 787 787 786 785 785 784 784 783 782 782 780 779 772 762 760 759 759 761 763 765 766 768 770 772 773 775 776 777 778 780 786 792 788 787 791 789 790 795 798 802 797 792 798 797 793 795 794 792 796 798 798 800 798 797 800 804 809 810 806 803 803 807 808 809 810 810 813 814
807 806 805 804 803 801 800 799 798 797 796 795 794 793 792 791 790 789 789 788 787 787 786 785 785 784 783 782 783 781 780 782 770 759 760 759 759 761 762 765 767 768 770 772 773 775 777 777 779 782 788 792 790 791 792 785 786 794 795 794 792 792 797 796 792 793 793 792 795 798 799 799 797 798 800 803 809 807 800 797 799 800 802 805 808 810 813 814
807 806 805 804 802 801 800 799 797 796 796 794 794 793 792 791 790 789 788 787 787 786 786 785 784 783 783 782 782 780 781 781 767 759 761 760 760 761 763 766 767 768 770 772 772 774 777 778 781 786 789 791 792 792 790 783 783 793 793 790 790 790 793 793 791 792 791 793 797 798 796 795 798 801 799 802 805 799 793 793 796 798 800 803 807 810 813 815
808 806 805 804 802 801 800 799 797 796 795 794 793 792 792 791 790 789 788 787 786 786 785 785 784 783 783 782 782 781 781 775 762 760 762 760 761 761 764 766 767 769 769 771 772 774 776 779 783 786 789 792 790 789 787 783 784 791 793 791 789 788 789 789 789 792 792 794 795 794 795 796 801 801 799 801 799 794 792 793 795 799 801 804 808 811 813 814
807 806 805 804 802 801 800 798 797 796 795 794 793 792 791 790 790 789 787 787 786 785 785 784 784 783 783 782 781 782 780 770 760 761 761 761 762 762 765 766 767 768 768 771 771 773 776 779 783 784 790 791 785 786 785 786 789 790 792 791 790 790 789 788 789 793 794 793 793 794 798 799 799 799 800 799 794 792 793 794 797 800 804 807 809 811 813 815
807 806 805 804 802 801 799 798 797 796 795 794 793 791 790 790 789 788 787 786 785 785 784 783 784 783 783 782 782 781 774 764 760 761 761 762 762 763 764 764 766 767 768 771 770 773 775 779 781 780 787 787 782 785 783 789 794 788 789 791 792 793 790 790 791 792 793 793 793 797 800 800 798 800 801 796 792 791 792 796 798 801 806 808 810 812 813 815
807 805 804 803 801 800 799 797 796 795 794 793 792 791 790 789 788 787 787 786 785 785 784 784 783 782 783 781 783 781 768 761 762 761 762 763 762 763 764 764 765 766 768 770 770 771 772 775 776 774 781 782 780 783 783 788 789 784 788 792 794 797 793 792 793 793 793 794 796 800 802 801 800 805 806 795 789 791 795 799 800 802 807 808 810 811 813 814
806 805 804 802 801 800 798 797 796 794 794 792 791 790 789 788 787 787 786 785 785 784 783 783 782 783 783 781 785 780 764 761 763 762 763 763 763 764 763 763 764 765 767 768 768 769 771 772 772 774 781 781 779 784 784 783 783 784 788 793 798 799 797 796 797 796 796 798 799 800 803 804 804 809 806 795 790 791 796 802 802 804 807 808 809 811 812 813
806 805 803 802 801 799 797 796 794 794 793 792 791 789 788 787 787 786 785 785 784 784 783 783 783 782 782 782 782 772 762 762 763 762 764 763 764 764 763 764 763 764 765 766 767 768 771 772 772 778 781 778 783 788 786 780 782 786 787 798 804 800 800 800 797 797 799 802 797 796 808 812 809 808 800 793 793 793 797 803 804 805 806 808 809 810 812 813
806 804 803 801 800 798 797 795 793 793 792 791 790 788 788 786 786 785 784 784 783 783 783 782 782 782 783 780 770 763 762 763 762 762 762 762 764 763 764 764 764 764 765 765 767 768 771 773 774 778 776 779 787 785 781 780 784 790 791 800 807 807 807 800 796 797 800 803 794 796 817 819 809 803 796 792 794 797 802 805 805 806 807 808 809 810 811 812
805 804 802 800 799 797 796 794 793 792 791 790 789 788 786 785 785 784 783 783 782 783 782 782 782 782 783 775 761 760 762 761 761 760 760 761 762 763 763 764 764 765 765 766 768 769 771 773 773 776 774 778 782 779 783 788 791 796 799 803 809 814 811 799 797 801 803 804 795 800 820 819 807 801 796 793 794 799 805 806 806 807 807 809 809 810 812 811
805 803 801 800 798 796 795 793 792 791 790 789 788 787 785 784 784 782 783 783 782 782 782 782 782 781 782 773 759 759 761 759 759 758 758 760 760 761 761 762 763 764 765 767 768 770 771 772 775 779 778 773 778 787 795 797 797 801 807 812 814 814 812 802 797 800 804 805 801 806 820 817 807 802 796 794 796 800 805 807 807 808 808 809 809 810 812 812
804 802 801 799 797 795 794 792 791 790 789 788 787 786 784 783 783 782 782 781 782 782 782 783 782 782 783 772 759 758 759 758 757 756 758 758 758 759 760 762 762 763 766 766 768 769 770 773 775 778 779 779 786 794 800 805 806 805 808 816 816 814 818 811 799 797 799 804 806 808 815 815 807 802 797 795 797 801 806 808 807 808 809 809 810 810 811 812
803 802 800 798 796 795 793 791 790 789 788 787 786 784 783 782 781 781 781 781 782 781 781 782 782 783 777 764 760 761 758 757 756 756 756 756 757 758 760 762 763 763 765 766 768 769 771 774 777 778 780 786 790 792 805 818 815 810 811 814 813 811 816 814 803 796 794 801 806 804 807 809 804 801 799 796 798 802 807 809 808 808 809 809 809 810 811 812
802 801 799 797 795 793 792 790 789 788 787 786 784 783 782 781 781 781 781 781 781 782 783 782 781 786 778 763 763 762 757 756 755 754 755 756 757 758 760 761 762 764 767 769 770 771 774 776 779 784 787 790 792 793 806 812 806 808 811 811 813 811 812 812 805 798 795 800 804 802 806 807 804 802 800 799 800 804 807 808 808 808 808 809 809 810 811 811
801 800 798 796 795 793 791 789 788 787 786 785 784 782 781 780 781 780 782 782 782 782 782 780 780 784 780 766 760 758 755 755 755 754 755 755 756 758 759 760 762 766 773 777 776 774 776 779 784 789 793 795 794 791 793 794 792 799 802 804 810 813 811 807 802 798 796 802 807 806 807 808 807 805 803 803 803 805 807 807 808 808 808 809 810 810 811 811
801 799 797 795 794 792 790 788 787 786 785 784 783 782 782 784 784 783 782 781 778 775 774 774 774 776 773 765 758 757 756 755 755 754 754 754 756 758 760 761 765 770 775 780 780 774 774 786 791 790 791 790 789 786 783 785 788 794 800 802 806 810 810 805 802 799 796 803 813 811 807 807 807 807 806 807 806 807 808 809 809 809 809 809 810 810 810 810
799 798 796 794 793 791 789 787 786 785 784 783 782 783 785 787 789 787 781 776 769 767 769 767 768 769 765 760 758 757 759 759 756 753 754 754 754 762 766 765 773 779 778 778 778 773 776 790 791 784 784 782 782 783 781 784 789 794 800 804 807 810 811 808 805 803 799 806 816 815 812 810 808 808 808 807 810 810 807 808 809 808 809 808 809 810 810 809
798 796 795 793 792 790 788 786 785 784 783 783 782 784 785 784 785 783 781 780 770 762 765 764 765 766 759 757 756 757 763 766 761 755 753 754 757 765 769 769 778 782 777 778 781 783 787 790 784 778 779 779 780 781 782 785 789 795 801 805 811 812 811 812 809 805 805 810 817 818 820 819 814 811 810 809 811 809 804 804 805 805 808 808 808 809 809 810
798 795 793 792 790 789 787 786 785 783 783 783 782 783 783 781 780 779 781 786 777 763 762 764 765 765 760 758 755 756 765 768 766 759 751 755 760 764 769 773 778 780 779 781 785 792 796 787 776 775 778 780 783 782 782 786 790 796 801 807 812 811 811 815 813 810 808 810 814 818 824 827 822 818 814 810 809 807 803 801 800 801 803 804 804 805 807 810
796 794 793 790 789 788 786 785 783 783 783 782 782 781 781 780 779 779 780 785 783 769 760 759 759 761 760 755 752 757 764 763 762 758 751 755 762 764 768 772 777 781 781 781 784 791 791 779 771 775 779 781 785 784 784 790 796 796 796 801 806 807 807 809 812 813 811 812 812 818 830 833 827 824 819 811 808 807 803 802 802 801 800 800 801 802 804 807
795 793 791 789 788 787 785 784 782 783 782 781 781 779 779 778 776 777 779 788 790 773 760 758 758 757 753 751 752 755 760 760 757 754 749 752 760 765 768 769 775 783 782 781 785 788 783 773 771 777 780 781 786 787 785 788 797 799 794 791 795 801 804 806 811 815 820 823 814 815 834 839 828 825 821 813 811 809 804 804 805 803 801 801 802 803 803 804
794 792 789 788 787 785 785 783 782 783 782 780 779 778 778 777 776 775 781 796 796 777 766 763 762 759 752 753 752 752 765 765 751 747 748 750 753 759 769 771 773 779 779 778 783 783 777 769 770 777 780 782 786 787 782 783 798 804 790 783 790 797 803 809 811 815 823 823 812 810 827 837 832 826 819 815 815 812 807 806 805 803 803 802 802 802 803 804
793 790 788 787 785 784 784 782 783 783 781 780 778 778 777 775 776 773 785 809 803 779 771 767 762 759 754 752 750 758 776 768 750 748 747 750 751 753 768 775 775 776 771 776 787 781 772 771 773 776 778 783 787 786 778 777 795 799 781 779 791 796 801 807 807 813 817 815 815 814 817 831 836 826 815 815 818 815 810 808 806 803 803 802 801 801 801 802
791 789 787 786 784 784 783 782 783 781 780 779 776 777 776 774 775 775 795 821 804 774 770 765 756 753 751 751 750 758 767 761 761 759 745 748 753 755 769 773 773 776 768 778 792 780 768 773 774 774 780 785 781 776 771 773 788 790 778 781 791 795 801 805 807 814 816 817 825 822 815 828 836 821 813 816 820 819 813 809 807 803 802 801 800 800 800 800
789 787 785 784 783 783 782 782 781 779 779 777 776 776 774 773 775 781 807 820 795 770 767 762 757 755 754 756 756 758 758 758 765 759 745 751 753 755 768 768 767 774 769 774 784 776 767 766 765 769 777 778 770 766 764 771 783 783 779 786 794 801 806 811 817 818 819 825 829 822 816 827 833 822 819 822 822 820 813 807 805 802 801 800 799 800 799 799
787 785 784 783 782 781 781 780 778 778 777 775 776 774 771 774 781 801 822 813 788 774 766 762 763 761 761 766 765 762 761 761 760 755 753 757 755 755 761 760 763 771 772 773 775 771 764 758 758 762 765 763 761 762 762 766 775 778 783 793 802 811 811 815 822 820 826 835 828 819 815 822 830 822 816 815 812 811 809 806 805 802 800 799 798 798 798 799
785 784 782 781 780 780 780 779 776 776 776 775 775 771 773 781 792 815 822 797 783 779 767 766 768 763 765 772 771 766 764 763 759 760 763 762 762 764 765 766 769 775 779 778 774 770 764 761 760 754 750 754 761 768 767 766 770 775 786 795 807 820 819 821 827 826 837 839 824 817 815 822 831 818 806 804 800 800 803 803 803 801 800 797 796 797 796 797
783 781 780 779 779 779 778 777 775 776 775 775 775 772 780 795 805 815 806 786 785 783 770 769 768 765 768 771 771 767 767 766 762 764 767 769 771 769 771 775 775 783 792 787 780 774 765 760 756 749 746 751 763 778 781 776 775 779 789 797 812 833 835 835 840 837 838 833 820 816 818 825 824 805 797 799 794 794 796 796 797 797 797 795 794 795 795 795
782 779 778 777 777 776 775 776 775 776 775 774 776 776 787 807 812 806 797 789 786 775 766 766 765 765 769 772 774 769 768 769 765 766 767 769 774 772 771 771 769 780 791 789 785 783 773 761 754 756 756 749 755 778 791 789 785 784 790 796 810 836 847 846 847 841 835 829 819 815 820 827 818 796 789 791 788 787 788 790 792 791 793 793 791 792 793 794
779 777 777 775 775 774 774 775 774 775 775 774 778 783 795 811 808 797 794 790 779 769 765 766 766 767 770 774 774 769 771 772 766 768 770 770 776 777 774 770 768 772 779 784 786 787 790 780 762 759 761 752 751 762 769 776 782 780 779 786 799 815 826 831 834 833 832 829 823 821 823 822 814 796 783 780 781 783 784 787 788 789 791 791 790 791 792 794
778 776 775 773 773 773 772 774 774 775 776 776 782 791 803 811 804 796 792 783 776 772 768 764 766 773 775 774 771 766 770 773 768 769 774 775 778 779 776 771 769 769 775 786 785 782 790 784 760 750 749 749 753 751 748 763 783 781 774 786 794 790 794 810 818 816 823 830 827 824 819 806 796 789 780 778 781 783 785 787 787 790 791 790 791 791 791 793
776 774 774 772 771 771 772 773 774 775 776 780 789 798 801 800 795 791 784 775 775 776 774 771 770 777 781 777 774 769 766 769 771 772 777 779 778 777 774 769 766 767 772 781 782 781 789 781 757 749 748 746 751 750 745 757 777 782 781 786 783 772 778 802 814 810 816 828 824 818 813 801 794 790 783 782 785 785 787 788 788 790 790 791 791 791 791 791
775 774 772 770 770 771 771 773 773 775 777 784 796 800 795 789 783 781 776 771 772 773 776 781 777 778 784 782 779 775 769 771 774 776 781 782 779 775 772 767 764 764 764 770 774 775 784 781 759 752 756 749 745 750 750 746 756 776 786 777 770 772 775 788 810 819 823 828 822 815 813 808 805 800 790 787 789 789 788 787 787 789 790 791 790 789 789 789
774 773 771 770 770 770 771 773 773 775 780 788 798 797 791 786 778 774 772 770 771 771 775 783 779 775 781 785 781 775 774 779 779 780 784 784 780 774 771 767 761 759 759 761 768 768 775 785 768 752 757 752 744 759 771 756 746 758 768 762 767 785 790 791 806 817 822 826 822 815 813 807 802 798 793 791 790 788 786 786 786 787 788 788 787 787 788 788
774 774 774 770 769 770 771 773 773 777 785 794 799 795 787 783 775 768 768 769 771 772 775 779 777 775 778 780 779 775 775 780 783 784 786 786 783 772 767 767 760 758 758 758 765 766 769 786 781 756 751 754 753 767 782 773 755 752 758 761 765 775 783 788 793 796 806 819 819 815 814 802 786 780 782 783 781 781 783 783 783 783 783 784 784 785 787 788
775 777 777 771 770 771 771 772 776 783 791 794 796 791 785 782 774 765 764 766 767 768 773 775 774 776 777 775 776 775 775 779 782 785 786 785 783 771 764 765 762 760 758 755 761 765 765 781 786 766 754 761 766 767 770 769 763 761 767 772 771 769 772 780 784 784 791 806 814 817 811 791 770 766 769 770 771 773 775 776 777 778 778 779 780 781 784 787
777 781 779 771 770 772 771 777 783 788 793 793 791 788 783 779 774 766 762 761 761 761 765 770 771 774 776 775 775 773 775 780 781 783 786 784 785 779 765 761 763 761 760 759 763 767 769 778 787 778 766 766 764 754 753 756 755 758 765 767 769 770 775 787 794 786 782 790 800 806 802 782 764 761 762 762 765 766 768 771 774 775 776 777 778 778 781 784
781 784 779 771 772 771 774 785 789 789 792 790 785 781 777 775 773 768 763 760 760 760 761 765 768 770 772 773 773 772 774 779 780 782 785 782 781 779 766 759 760 760 761 767 768 765 767 779 788 783 770 765 759 749 751 753 748 751 757 759 764 767 771 784 793 786 782 785 787 793 795 781 764 759 759 759 760 762 765 768 772 774 775 776 777 778 780 782
785 784 775 771 773 771 778 791 792 790 790 784 779 776 773 773 772 769 765 763 762 763 764 766 766 768 770 770 771 773 775 778 779 780 781 779 774 769 764 760 759 759 763 769 769 762 767 785 794 784 769 761 756 749 748 748 751 757 758 757 763 764 761 767 773 774 779 785 786 791 795 784 766 760 760 759 760 763 765 767 770 774 775 776 778 778 780 782
789 786 777 774 773 772 782 794 793 792 789 783 781 778 772 770 769 768 767 765 762 764 767 768 766 767 768 768 769 773 776 780 782 779 779 781 775 765 760 759 759 761 764 767 766 764 776 793 797 795 793 786 778 770 762 758 761 767 765 761 761 759 758 762 765 769 778 783 782 786 793 788 773 763 763 763 764 767 769 769 771 773 776 777 779 779 780 782
789 787 781 776 773 775 783 787 788 791 790 787 787 782 776 771 764 762 765 763 761 762 766 767 765 765 766 767 770 773 773 777 781 779 777 779 775 765 760 760 760 761 762 762 760 763 781 795 795 804 817 816 807 796 782 774 771 769 767 767 765 759 757 762 767 774 781 780 779 786 794 790 777 769 770 770 770 773 773 773 773 774 776 778 779 781 782 783
790 789 786 781 776 777 782 782 784 789 790 792 792 783 778 775 765 759 760 763 762 760 763 765 763 765 768 770 774 777 775 774 777 778 778 778 774 768 763 760 761 763 761 761 762 766 782 794 794 801 809 807 803 793 777 774 779 780 778 777 773 763 756 758 765 773 776 777 786 794 793 790 786 781 779 776 775 777 776 775 776 776 777 778 780 782 783 784
794 794 793 791 786 784 784 783 785 789 788 792 792 782 777 777 771 763 761 763 763 760 763 767 766 768 772 773 777 781 779 776 776 778 780 779 773 769 765 761 762 763 761 763 766 772 787 797 796 795 793 790 791 785 774 775 784 789 788 784 780 770 761 761 767 769 766 772 790 796 789 792 796 790 784 781 778 779 779 778 778 778 779 780 781 784 786 787
795 795 793 794 795 793 790 787 787 788 786 789 788 781 777 776 774 770 766 764 763 761 765 772 772 772 773 772 777 783 782 780 781 781 782 780 776 773 769 765 764 762 761 767 768 773 791 802 795 789 785 782 783 782 778 781 787 790 790 787 784 779 774 776 780 777 769 772 788 794 792 795 797 791 787 785 781 781 782 780 779 779 780 782 783 786 788 789
796 797 793 793 796 796 792 789 788 788 786 787 787 780 777 776 773 770 767 766 769 766 767 775 778 775 773 771 774 783 787 787 788 785 781 781 780 778 777 774 769 763 764 770 772 773 788 801 795 789 787 783 784 787 784 783 787 791 792 790 787 786 785 784 786 784 779 782 790 793 794 797 795 791 789 786 783 783 782 781 781 781 782 783 785 786 787 789
800 801 799 798 797 794 792 790 789 789 786 787 788 782 778 776 772 768 765 768 774 772 769 774 779 777 775 773 774 781 783 783 785 783 780 781 782 780 781 780 775 769 767 771 775 775 783 796 796 790 791 789 786 786 785 785 790 795 797 795 790 788 790 790 789 788 789 794 795 791 795 799 795 791 789 787 785 785 785 786 786 786 785 785 786 787 787 787
803 803 803 803 799 793 792 790 788 790 789 787 788 784 779 777 773 769 767 766 769 771 769 771 776 776 775 774 776 779 777 775 777 775 773 776 777 776 778 776 774 774 772 772 776 777 781 793 793 789 796 797 787 786 788 784 787 796 802 803 800 797 797 797 795 794 795 798 797 795 800 803 797 791 791 790 789 789 790 791 790 789 788 787 788 788 789 788
803 802 802 804 801 795 793 791 789 792 790 787 787 783 778 776 771 770 771 768 765 765 765 766 770 774 777 778 777 774 771 770 770 768 767 770 770 770 772 772 771 773 773 774 778 780 782 788 789 791 801 799 790 792 790 784 795 810 811 809 809 805 801 799 798 797 796 797 800 802 803 801 796 793 794 793 792 793 794 793 792 792 790 788 788 788 789 789